Regional Weather Roundup
Issued by NWS

Home | Current Version | Previous Version | Text Only | Print | Product List | Glossary Off
Versions: 1 2 3 4 5 6 7 8 9 10 11 12 13 14 15 16 17 18 19 20 21 22 23 24 25 26 27 28 29 30 31 32 33 34 35 36 37 38 39 40 41 42 43 44 45 46 47 48 49 50

000
ASUS45 KABQ 280001
RWRNM
WEATHER ROUNDUP FOR NEW MEXICO
NATIONAL WEATHER SERVICE ALBUQUERQUE NM
500 PM MST SAT DEC 27 2014

NOTE: "FAIR" MEANS FEW OR NO CLOUDS BELOW 12,000 FEET AGL WITH NO
       SIGNIFICANT WEATHER OR OBSTRUCTIONS TO VISION.

      THIS PRODUCT IS RELEASED AS TWO VERSIONS.  ONE VERSION NEAR
      THE TOP OF THE HOUR CONTAINING PRELIMINARY DATA FROM ALBUQUERQUE
      AND OTHER STATIONS.  A FINAL VERSION WITH ADDITIONAL DATA IS
      ISSUED ABOUT 10 MINUTES AFTER THE HOUR.

NMZ501-503-504-510>518-280100-
NORTHWEST PLATEAU/NORTHCENTRAL MOUNTAINS

CITY           SKY/WX    TMP DP  RH WIND       PRES   REMARKS
FARMINGTON     CLEAR     23  13  65 SW3       30.24R
6HR MIN TEMP:  18; 6HR MAX TEMP:  28;

LOS ALAMOS     MOCLDY    24  12  61 E5        30.16S WCI  18
SANTA FE       CLEAR     27  10  49 SW6       30.16S WCI  20
6HR MIN TEMP:  25; 6HR MAX TEMP:  30;

TAOS           CLEAR     19   9  63 E5        30.15S WCI  13
ANGEL FIRE     FAIR      16   7  69 SW7       30.10R WCI   6

$$
NMZ402-403-502-505>509-280100-
WESTCENTRAL MOUNTAINS/SOUTHWEST MOUNTAINS

CITY           SKY/WX    TMP DP  RH WIND       PRES   REMARKS
GALLUP         CLEAR     24   9  52 CALM      30.22S
6HR MIN TEMP:  15; 6HR MAX TEMP:  28;

GRANTS         CLEAR     26   6  41 N12       30.21F WCI  16
SILVER CITY    CLEAR     37  10  32 CALM      30.20R

$$
NMZ407-409-411-412-280100-
SOUTHERN DESERTS

CITY           SKY/WX    TMP DP  RH WIND       PRES   REMARKS
LORDSBURG      FAIR      41  25  52 CALM      30.20S
DEMING         CLEAR     40  25  55 SW5       30.21R
6HR MIN TEMP:  35; 6HR MAX TEMP:  41;

HOLLOMAN AFB   PTCLDY    41  23  48 W3        30.19R
ALAMOGORDO     CLEAR     41  18  38 NW3       30.20R
T OR C         CLEAR     39  11  31 NE6       30.18S WCI  35
6HR MIN TEMP:  36; 6HR MAX TEMP:  43;


$$
NMZ519>523-280100-
CENTRAL VALLEYS/CENTRAL HIGHLANDS

CITY           SKY/WX    TMP DP  RH WIND       PRES   REMARKS
ALBUQUERQUE    PTCLDY    35   7  31 NW12      30.21R WCI  27
6HR MIN TEMP:  31; 6HR MAX TEMP:  37;

DOUBLE EAGLE   CLEAR     30   3  31 NW10      30.21R WCI  21
MORIARTY ARPT  FAIR      27  13  54 W6        30.18S WCI  21
6HR MIN TEMP:  21; 6HR MAX TEMP:  32;

CLINES CORNERS CLEAR     18   9  68 W10       30.11F WCI   6
6HR MIN TEMP:  18; 6HR MAX TEMP:  26;

BELEN          FAIR      34  13  42 E3        30.22R
6HR MIN TEMP:  31; 6HR MAX TEMP:  37;

SOCORRO        FAIR      37  11  35 N6        30.20S WCI  32
6HR MIN TEMP:  33; 6HR MAX TEMP:  40;


$$
NMZ524>526-539-540-280100-
SOUTHCENTRAL MOUNTAINS

CITY           SKY/WX    TMP DP  RH WIND       PRES   REMARKS
RUIDOSO        MOCLDY    28  12  50 CALM      30.17R

$$
NMZ527>531-280100-
NORTHEAST HIGHLANDS/NORTHEAST PLAINS

CITY           SKY/WX    TMP DP  RH WIND       PRES   REMARKS
LAS VEGAS      CLEAR     22  10  60 S14       30.09S WCI   9
6HR MIN TEMP:  13; 6HR MAX TEMP:  26;

RATON          MOCLDY    11   8  88 SW7       30.11S WCI   0
6HR MIN TEMP:  11; 6HR MAX TEMP:  20;

CLAYTON        CLEAR     26  18  71 SW8       30.14F WCI  18
6HR MIN TEMP:  26; 6HR MAX TEMP:  32;


$$
NMZ532>537-280100-
EASTCENTRAL PLAINS

CITY           SKY/WX    TMP DP  RH WIND       PRES   REMARKS
TUCUMCARI      CLEAR     25  20  81 E3        30.20F
6HR MIN TEMP:  24; 6HR MAX TEMP:  31;

CANNON AFB     CLEAR     32  17  54 NW3       30.21S
6HR MIN TEMP:  27; 6HR MAX TEMP:  34;

CLOVIS AIRPORT CLEAR     32  16  51 CALM      30.21S

$$
NMZ028-029-538-280100-
SOUTHEAST PLAINS

CITY           SKY/WX    TMP DP  RH WIND       PRES   REMARKS
ROSWELL        CLEAR     38  19  46 CALM      30.24R
6HR MIN TEMP:  33; 6HR MAX TEMP:  41;

ARTESIA        CLOUDY    37  25  60 S5        30.25S WCI  34
CARLSBAD       CLOUDY    36  30  79 W6        30.25S WCI  31
6HR MIN TEMP:  33; 6HR MAX TEMP:  38; 6HR PCP: TRACE;

HOBBS          CLEAR     34  27  75 N6        30.25R WCI  29


$$



USA.gov is the U.S. government's official web portal to all federal, state and local government web resources and services.